Regional Weather Roundup
Issued by NWS

Home | Current Version | Previous Version | Graphics & Text | Print | Product List | Glossary On
Versions: 1 2 3 4 5 6 7 8 9 10 11 12 13 14 15 16 17 18 19 20 21 22 23 24 25 26 27 28 29 30 31 32 33 34 35 36 37 38 39 40 41 42 43 44 45 46 47 48 49 50
000
ASUS43 KFSD 281802
RWRSD

WEATHER ROUNDUP FOR SOUTH DAKOTA
NATIONAL WEATHER SERVICE SIOUX FALLS SD
100 PM CDT MON JUL 28 2014

NOTE: "FAIR" INDICATES FEW OR NO CLOUDS BELOW 12,000 FEET WITH NO
SIGNIFICANT WEATHER AND/OR OBSTRUCTIONS TO VISIBILITY.


SDZ001>005-009-010-012>017-281900-
NORTHWEST AND NORTH CENTRAL SOUTH DAKOTA

CITY           SKY/WX    TMP DP  RH WIND       PRES   REMARKS
BUFFALO          N/A     77  55  46 E9        30.25F
FAITH            N/A     73  53  49 CALM      30.32F
MOBRIDGE       PTSUNNY   71  53  52 VRB3      30.29F
$$

SDZ012>016-024>037-041>051-057-063-072>074-281900-
SOUTHWEST AND SOUTH CENTRAL SOUTH DAKOTA

CITY           SKY/WX    TMP DP  RH WIND       PRES   REMARKS
RAPID CTY ARPT SUNNY     76  57  51 SE10      30.32F
PIERRE         SUNNY     73  52  47 N9        30.29F
CUSTER         SUNNY     72  49  44 S9        30.41F
ELLSWORTH AFB  SUNNY     76  57  51 SE10      30.31F
PHILIP         SUNNY     79  52  38 NE6       30.30F
PINE RIDGE     SUNNY     78  54  43 E8        30.32F
WINNER         FAIR      76  50  40 VRB3      30.31F
$$

SDZ004>011-016>023-039-040-281900-
NORTHEAST SOUTH DAKOTA

CITY           SKY/WX    TMP DP  RH WIND       PRES   REMARKS
ABERDEEN       MOSUNNY   70  49  47 NE8       30.28F
WATERTOWN      CLOUDY    67  50  54 N13       30.27F
SISSETON         N/A     71  50  47 N13G20    30.26F
$$

SDZ017-020-022-023-036>040-048>070-281900-
SOUTHEAST SOUTH DAKOTA

CITY           SKY/WX    TMP DP  RH WIND       PRES   REMARKS
SIOUX FALLS    PTSUNNY   73  56  54 N9G16     30.26F
HURON          CLOUDY    71  51  49 N8        30.28F
CHAMBERLAIN    MOSUNNY   71  52  51 N7        30.30F
MITCHELL       MOSUNNY   74  55  51 N8        30.29F
YANKTON          N/A    N/A N/A N/A MISG        N/A
$$

ABBREVIATIONS USED IN REMARKS
   TC - TEMPERATURE IN CELSIUS
  WCI - WIND CHILL INDEX
   HX - HEAT INDEX
  VSB - VISIBILITY



USA.gov is the U.S. government's official web portal to all federal, state and local government web resources and services.